Search the data

BODC Cruise Metadata Report for FRV Clupea (74CU) cruise 0493C

Introduction

This report collates information from the BODC cruise inventory and oceanographic databases. It presents

Cruise Inventory Information

Long name FRV Clupea (74CU) cruise 0493C
Short name 0493C
Objectives and Narrative 1. To service instrumentation on three moorings.
2. To undertake a hydrochemical survey along the east coast of Scotland, Moray Firth to the Firth of Forth.
Ship FRV Clupea
Departure Port Aberdeen, United Kingdom
Departure Date 1993-03-08
Arrival Port Fraserburgh, United Kingdom
Arrival Date 1993-03-12
Principal Scientist(s) Philip W Balls (Scottish Office Agriculture and Fisheries Department Aberdeen Marine Laboratory)
Responsible Organisation Scottish Office Agriculture and Fisheries Department Aberdeen Marine Laboratory
Associated Project(s) Coastal Zone Project
IHB Sea Areas Visited North Sea
Marsden Squares Visited 181;3
Work Area Description East coast of Scotland, Tay and the Firth of Forth.
Work Area Bounding Polygon 55N,5W; 60N,5W; 60N,0E; 55N,0E; 55N,5W
Southern Limit 55N
Northern Limit 60N
Western Limit 5W
Eastern Limit 0E

Cruise Inventory Datasets

Physical oceanography  
CTD stations Quantity: number of profiles = 68
Description: Neil Brown  
Current meters Quantity: number of stations = 3
Description: serviced 5 ACM  
Chemical oceanography  
Nitrate Quantity: number of samples = 62
Description:  
Phosphate Quantity: number of samples = 68
Description: surface nutrient samples  
Silicate Quantity: number of samples = 62
Description:  
Biology and fisheries  
Phytoplankton pigs (eg chlorophyll, fluorescence) Quantity: number of profiles = 68
Description: Fluorometer profiles and filtered Chl. samples  

Cruise Inventory Mooring/Buoy Operations

Latitude Longitude Data type Description
56° 22' N 2° 37' W Current meters serviced 1 ACM and 1 moored nutrient analyser
56° 16' N 2° 33' W Current meters serviced 2 ACM
56° 31' N 2° 31' W Current meters serviced 2 ACM, 1 WLR and 1 moored nutrient analyser
56° 22' N 2° 37' W Nitrate serviced 1 ACM and 1 moored nutrient analyser
56° 31' N 2° 31' W Nitrate serviced 2 ACM, 1 WLR and 1 moored nutrient analyser
56° 31' N 2° 31' W Sea level (inc. bot. press., inverted echosounder) serviced 2 ACM, 1 WLR and 1 moored nutrient analyser

Summary of BODC Data Holdings for the Cruise

National Oceanographic Database

Summary

# Series Instrument Description Parameters
68 CTD/STD cast Density of the water column
Electrical conductivity of the water column
Salinity of the water column
Temperature of the water column
Vertical spatial coordinates

Note: Parameter terms are taken from the BODC Parameter Discovery Vocabulary XML (SKOS)

Full List

BODC Reference Instrument Description Date/Time Location  
395227 CTD/STD cast 1993-03-11 04:50Z 57° 7' N, 2° 0' W Click for more
395239 CTD/STD cast 1993-03-11 05:05Z 57° 7' N, 1° 58' W Click for more
395240 CTD/STD cast 1993-03-11 05:21Z 57° 7' N, 1° 56' W Click for more
395252 CTD/STD cast 1993-03-11 05:37Z 57° 7' N, 1° 54' W Click for more
395264 CTD/STD cast 1993-03-11 05:52Z 57° 7' N, 1° 52' W Click for more
395276 CTD/STD cast 1993-03-11 06:12Z 57° 7' N, 1° 48' W Click for more
395288 CTD/STD cast 1993-03-11 07:17Z 57° 13' N, 2° 1' W Click for more
395307 CTD/STD cast 1993-03-11 07:26Z 57° 13' N, 2° 0' W Click for more
395319 CTD/STD cast 1993-03-11 08:01Z 57° 14' N, 1° 59' W Click for more
395320 CTD/STD cast 1993-03-11 08:13Z 57° 13' N, 1° 58' W Click for more
395332 CTD/STD cast 1993-03-11 08:29Z 57° 13' N, 1° 55' W Click for more
395344 CTD/STD cast 1993-03-11 08:44Z 57° 13' N, 1° 53' W Click for more
395356 CTD/STD cast 1993-03-11 09:02Z 57° 13' N, 1° 51' W Click for more
395368 CTD/STD cast 1993-03-11 09:20Z 57° 13' N, 1° 48' W Click for more
404078 CTD/STD cast 1993-03-10 04:15Z 56° 22' N, 2° 44' W Click for more
404091 CTD/STD cast 1993-03-10 04:44Z 56° 22' N, 2° 41' W Click for more
404109 CTD/STD cast 1993-03-10 05:05Z 56° 22' N, 2° 38' W Click for more
404110 CTD/STD cast 1993-03-10 05:23Z 56° 22' N, 2° 35' W Click for more
404122 CTD/STD cast 1993-03-10 05:40Z 56° 22' N, 2° 32' W Click for more
404134 CTD/STD cast 1993-03-10 06:03Z 56° 22' N, 2° 27' W Click for more
404146 CTD/STD cast 1993-03-10 06:24Z 56° 22' N, 2° 23' W Click for more
404158 CTD/STD cast 1993-03-10 06:46Z 56° 22' N, 2° 19' W Click for more
404171 CTD/STD cast 1993-03-10 07:07Z 56° 22' N, 2° 14' W Click for more
404183 CTD/STD cast 1993-03-10 07:28Z 56° 22' N, 2° 10' W Click for more
404195 CTD/STD cast 1993-03-10 07:53Z 56° 22' N, 2° 6' W Click for more
404202 CTD/STD cast 1993-03-10 08:28Z 56° 22' N, 2° 0' W Click for more
404214 CTD/STD cast 1993-03-10 09:24Z 56° 16' N, 2° 0' W Click for more
404226 CTD/STD cast 1993-03-10 09:48Z 56° 16' N, 2° 4' W Click for more
404238 CTD/STD cast 1993-03-10 10:12Z 56° 16' N, 2° 10' W Click for more
404251 CTD/STD cast 1993-03-10 10:32Z 56° 16' N, 2° 14' W Click for more
404263 CTD/STD cast 1993-03-10 11:01Z 56° 16' N, 2° 19' W Click for more
404275 CTD/STD cast 1993-03-10 11:22Z 56° 16' N, 2° 24' W Click for more
404287 CTD/STD cast 1993-03-10 11:41Z 56° 16' N, 2° 28' W Click for more
404299 CTD/STD cast 1993-03-10 12:20Z 56° 16' N, 2° 28' W Click for more
404306 CTD/STD cast 1993-03-10 12:32Z 56° 16' N, 2° 33' W Click for more
404318 CTD/STD cast 1993-03-10 12:43Z 56° 16' N, 2° 34' W Click for more
404331 CTD/STD cast 1993-03-10 12:53Z 56° 16' N, 2° 34' W Click for more
404343 CTD/STD cast 1993-03-10 14:20Z 56° 27' N, 2° 37' W Click for more
404355 CTD/STD cast 1993-03-10 14:35Z 56° 27' N, 2° 36' W Click for more
404367 CTD/STD cast 1993-03-10 14:54Z 56° 27' N, 2° 32' W Click for more
404379 CTD/STD cast 1993-03-10 15:16Z 56° 27' N, 2° 28' W Click for more
404380 CTD/STD cast 1993-03-10 15:41Z 56° 27' N, 2° 23' W Click for more
404392 CTD/STD cast 1993-03-10 16:03Z 56° 27' N, 2° 19' W Click for more
404411 CTD/STD cast 1993-03-10 16:29Z 56° 27' N, 2° 14' W Click for more
404423 CTD/STD cast 1993-03-10 16:51Z 56° 27' N, 2° 10' W Click for more
404435 CTD/STD cast 1993-03-10 17:19Z 56° 27' N, 2° 4' W Click for more
404447 CTD/STD cast 1993-03-10 17:42Z 56° 27' N, 2° 0' W Click for more
404459 CTD/STD cast 1993-03-10 18:10Z 56° 31' N, 2° 0' W Click for more
404460 CTD/STD cast 1993-03-10 18:35Z 56° 31' N, 2° 4' W Click for more
404472 CTD/STD cast 1993-03-10 19:01Z 56° 31' N, 2° 10' W Click for more
404484 CTD/STD cast 1993-03-10 19:25Z 56° 31' N, 2° 15' W Click for more
404496 CTD/STD cast 1993-03-10 19:50Z 56° 31' N, 2° 19' W Click for more
404503 CTD/STD cast 1993-03-10 20:11Z 56° 31' N, 2° 23' W Click for more
404515 CTD/STD cast 1993-03-10 20:35Z 56° 31' N, 2° 28' W Click for more
404527 CTD/STD cast 1993-03-10 21:00Z 56° 31' N, 2° 32' W Click for more
404539 CTD/STD cast 1993-03-10 21:20Z 56° 31' N, 2° 36' W Click for more
404540 CTD/STD cast 1993-03-10 21:37Z 56° 31' N, 2° 37' W Click for more
404552 CTD/STD cast 1993-03-11 00:31Z 56° 52' N, 2° 12' W Click for more
404564 CTD/STD cast 1993-03-11 00:42Z 56° 52' N, 2° 11' W Click for more
404576 CTD/STD cast 1993-03-11 00:54Z 56° 52' N, 2° 10' W Click for more
404588 CTD/STD cast 1993-03-11 01:06Z 56° 52' N, 2° 9' W Click for more
404607 CTD/STD cast 1993-03-11 01:22Z 56° 52' N, 2° 7' W Click for more
404619 CTD/STD cast 1993-03-11 01:37Z 56° 52' N, 2° 5' W Click for more
404620 CTD/STD cast 1993-03-11 01:52Z 56° 52' N, 2° 3' W Click for more
404632 CTD/STD cast 1993-03-11 02:08Z 56° 52' N, 2° 1' W Click for more
404644 CTD/STD cast 1993-03-11 02:27Z 56° 52' N, 1° 58' W Click for more
404656 CTD/STD cast 1993-03-11 04:15Z 57° 7' N, 2° 1' W Click for more
404668 CTD/STD cast 1993-03-11 04:31Z 57° 0' N, 2° 1' W Click for more

Project Database

No data currently held for this cruise in the BODC Project Database

References

Track Charts

Track Chart

Reports

Cruise Report